Regional Weather Roundup
Issued by NWS Cleveland, OH

Home | Current Version | Previous Version | Text Only | Print | Product List | Glossary Off
Versions: 1 2 3 4 5 6 7 8 9 10 11 12 13 14 15 16 17 18 19 20 21 22 23 24 25 26 27 28 29 30 31 32 33 34 35 36 37 38 39 40 41 42 43 44 45 46 47 48 49 50

000
ASUS41 KCLE 200510
RWRCLE
OHIO REGIONAL WEATHER ROUNDUP
NATIONAL WEATHER SERVICE CLEVELAND, OH
1200 AM EST FRI JAN 20 2017

NOTE: "FAIR" INDICATES FEW OR NO CLOUDS BELOW 12,000 FEET WITH NO
SIGNIFICANT WEATHER AND/OR OBSTRUCTIONS TO VISIBILITY.

OHZ001>008-015>018-024>027-034-035-043-044-200600-
   NORTHWEST OHIO

CITY           SKY/WX    TMP DP  RH WIND       PRES   REMARKS
DEFIANCE       MOCLDY    36  34  92 E7        29.83F
FINDLAY        CLOUDY    39  34  82 E6        29.82F
TOLEDO EXPRESS PTCLDY    35  35 100 E8        29.84F WCI  29
TOLEDO EXEC    MOCLDY    35  34  96 NE7       29.86F FOG     WCI  29
LIMA           CLOUDY    40  38  93 E10       29.79F
$$

OHZ009>014-019>023-028>033-038-089-200600-
   NORTHEAST OHIO

CITY           SKY/WX    TMP DP  RH WIND       PRES   REMARKS
CLE-HOPKINS    CLOUDY    37  32  82 SE7       29.91F
CLE-LAKEFRONT  PTCLDY    37  33  85 SE6       29.89F
CUY CO. ARPT   NOT AVBL
LORAIN-ELYRIA  PTCLDY    36  32  85 SE8       29.87F
ASHTABULA      CLOUDY    31  31 100 SE3       29.91F FOG
AKRON-CANTON   CLOUDY    36  32  85 SE8       29.89F FOG
WOOSTER        CLOUDY    35  33  92 SE10      29.87F WCI  27
MANSFIELD      CLOUDY    36  35  96 SE10      29.84F
YOUNGSTOWN     CLOUDY    31  30  96 SE3       29.91S
$$

OHZ042-051>053-060>062-070>072-077>081-200600-
  SOUTHWEST OHIO

CITY           SKY/WX    TMP DP  RH WIND       PRES   REMARKS
CINC-COVINGTON RAIN      47  44  90 E10       29.71F FOG
CINC-LUNKEN    LGT RAIN  47  45  93 N6        29.75F
HAMILTON       LGT RAIN  46  45  96 E8        29.75F FOG
DAYTON         HVY RAIN  42  40  92 E15       29.76F FOG
WRIGHT-PAT AFB LGT RAIN  43  42  97 E7        29.77F FOG
DAYTON GENERAL LGT RAIN  43  41  93 E14       29.74F
WILMINGTON     RAIN      43  41  93 E9        29.77F FOG
$$

OHZ036-037-039>041-045>050-054>059-063>069-073>076-082>088-200600-
  CENTRAL AND SOUTHEAST OHIO

CITY           SKY/WX    TMP DP  RH WIND       PRES   REMARKS
COLUMBUS       CLOUDY    41  37  86 E12       29.83F
OSU AIRPORT    PTCLDY    40  38  93 E9        29.82F
BOLTON FIELD   MOCLDY    39  38  94 E9        29.81F
RICKENBACK AFB   N/A     39  38  94 E6        29.81F
NEWARK         CLOUDY    39  36  89 E6        29.85F
MARION         CLOUDY    37  35  92 SE8       29.83F
LANCASTER      PTCLDY    41  38  89 E8        29.83F
ZANESVILLE     CLOUDY    38  35  89 SE5       29.86F
NEW PHILLY     NOT AVBL
$$



USA.gov is the U.S. government's official web portal to all federal, state and local government web resources and services.